Tracking 18980 objects as of 20-Feb-2018
HD Live streaming from Space Station
objects crossing your sky now

COSMOS 2440

Track COSMOS 2440 now!
COSMOS 2440 is classified as:


NORAD ID: 33108
Int'l Code: 2008-033A
Perigee: 35,765.1 km
Apogee: 35,821.6 km
Inclination: 5.1 °
Period: 1,436.1 minutes
Semi major axis: 42164 km
RCS: 10.0237 m2 (large)
Launch date: June 27, 2008
Source: Commonwealth of Independent States (former USSR) (CIS)
Launch site: TYURATAM MISSILE AND SPACE COMPLEX (TTMTR)

Cosmos 2440 is a Russian military, geostationary, early warning craft.
aabbcc
Your satellite tracking list
Your tracking list is empty




NASA's NSSDC Master Catalog

Two Line Element Set (TLE):
1 33108U 08033A   18051.04579171 -.00000148  00000-0  00000+0 0  9991
2 33108   5.0611  56.5602 0006695 214.8154 335.1783  1.00273251 35330
Source of the keplerian elements: AFSPC